Regional Weather Roundup
Issued by NWS

Home | Current Version | Previous Version | Graphics & Text | Print | Product List | Glossary On
Versions: 1 2 3 4 5 6 7 8 9 10 11 12 13 14 15 16 17 18 19 20 21 22 23 24 25 26 27 28 29 30 31 32 33 34 35 36 37 38 39 40 41 42 43 44 45 46 47 48 49 50
613
ASUS43 KLOT 290809
RWRIL

ILLINOIS REGIONAL WEATHER ROUNDUP
NATIONAL WEATHER SERVICE CHICAGO/ROMEOVILLE IL
300 AM CDT MON MAY 29 2017

NOTE: "FAIR" INDICATES FEW OR NO CLOUDS BELOW 12,000 FEET WITH NO
SIGNIFICANT WEATHER AND/OR OBSTRUCTIONS TO VISIBILITY.

* THESE STATIONS ARE NOT UNDER NWS QUALITY CONTROL. THEY ALSO MAY NOT
  REPORT WEATHER SUCH AS PRECIPITATION OR FOG.

ILZ001-002-007-009-015-016-024-290900-
NORTHWEST ILLINOIS

CITY           SKY/WX    TMP DP  RH WIND       PRES   REMARKS
MOLINE         CLEAR     58  48  69 S3        29.81R
STERLING*      CLEAR     59  53  80 SW8       29.80R
SAVANNA*       CLEAR     61  49  64 NW7       29.78S
$$

ILZ003-004-008-010-011-017-018-290900-
NORTH CENTRAL ILLINOIS

CITY           SKY/WX    TMP DP  RH WIND       PRES   REMARKS
ROCKFORD       CLEAR     56  51  84 S5        29.77S
FREEPORT*      CLEAR     55  49  78 SW6       29.78S
ROCHELLE*      CLEAR     55  52  90 CALM      29.79R
DE KALB*       CLEAR     54  50  86 SW8       29.79R
PERU*          MOCLDY    58  51  76 W10       29.80R
$$

ILZ005-006-012>014-019>023-290900-
NORTHEAST ILLINOIS

CITY           SKY/WX    TMP DP  RH WIND       PRES   REMARKS
CHICAGO-OHARE  CLOUDY    63  50  62 SW5       29.75F
CHICAGO-MIDWAY CLOUDY    64  52  64 SW7       29.76F
AURORA         PTCLDY    61  52  72 SW5       29.78S
LANSING*       PTCLDY    56  53  89 S6        29.78S
JOLIET*        CLOUDY    58  55  90 S3        29.78F
WAUKEGAN       CLEAR     55  49  80 VRB3      29.74F
DUPAGE AIRPORT CLOUDY    56  53  90 S6        29.76F
KANKAKEE*      CLOUDY    64  53  67 CALM      29.80S
WHEELING       PTCLDY    59  51  75 CALM      29.76F
MORRIS*        CLOUDY    62  51  69 CALM      29.77F
ROMEOVILLE*    CLOUDY    60  54  83 SW7       29.78S
NORTHERLY ISL    N/A     65  48  54 W3          N/A
$$

LMZ740>746-290900-
SOUTHERN LAKE MICHIGAN

STATION/POSITION SKY/WX   TEMP    WIND        PRES    VSBY  WAVE
                          AIR SEA DIR/SP/G                  HT/PER
                          (F)     (DEG/KT/KT) (MB)    (MI)  (FT/S)
SOUTHERN BUOY              53 47  260/ 10/ 10 1007.2          1
WILMETTE HARBOR            58 55  220/  4/  6   N/A           0
HARRISON CRIB              71     240/  9/ 10   N/A
BURNHAM HARBOR             65     250/  6/  6   N/A
CALUMET HARBOR             64     230/  3/  4   N/A
BURNS HARBOR               64     200/  7/ 11 1008.8F
MICHIGAN CITY              62     180/  7/  7   N/A
MICHIGAN CITY 6N           59 58  210/  6/  8   N/A           1
ST. JOSEPH                 60 59  250/  6/  8 1008.0          1
$$

ILZ025>027-034>036-040-047-049-050-058-095>099-290900-
WEST-CENTRAL ILLINOIS

CITY           SKY/WX    TMP DP  RH WIND       PRES   REMARKS
QUINCY         CLEAR     60  51  72 W6        29.88S
GALESBURG*     CLEAR     56  50  78 S7        29.85R
MACOMB*        PTCLDY    58  51  77 W8        29.88S
JACKSONVILLE*  CLEAR     63  55  74 SW7       29.87S
PITTSFIELD*    CLEAR     65  54  67 W5        29.90R
$$

ILZ028>032-037-038-041>044-048-051>054-059>061-290900-
CENTRAL ILLINOIS

CITY           SKY/WX    TMP DP  RH WIND       PRES   REMARKS
PONTIAC        PTCLDY    64  54  68 SW10      29.82R
BLOOMINGTON    CLEAR     63  53  70 W12       29.84S
DECATUR        PTCLDY    62  55  77 SW9       29.86R
PEORIA         CLEAR     60  51  72 W5        29.84R
LACON*         MOCLDY    60  51  74 SW3       29.82R
LINCOLN*       CLEAR     65  56  72 W3        29.85R
SPRINGFIELD    CLOUDY    66  57  72 W10       29.86R
TAYLORVILLE    CLOUDY    65  56  72 SW7       29.87R
$$

ILZ033-039-045-046-055>057-062-063-290900-
EAST-CENTRAL ILLINOIS

CITY           SKY/WX    TMP DP  RH WIND       PRES   REMARKS
CHAMPAIGN      CLEAR     61  54  77 SW12      29.84S
RANTOUL*       CLEAR     62  56  81 SW9       29.83S
MATTOON        CLEAR     64  55  72 SW7       29.86R
PARIS*         PTCLDY    60  56  84 SW9       29.87R
$$

ILZ079-100>102-290900-
SOUTHWEST ILLINOIS

CITY           SKY/WX    TMP DP  RH WIND       PRES   REMARKS
ALTON          PTCLDY    60  56  85 SW7       29.91R
BELLEVILLE     CLOUDY    62  56  83 SW5       29.91R
CAHOKIA*       CLEAR     64  56  75 W6        29.90R
SPARTA*        PTCLDY    64  56  75 SW5       29.92S
$$

ILZ064>066-069>071-074>076-080>082-084>086-088>090-092>094-290900-
SOUTH-CENTRAL ILLINOIS

CITY           SKY/WX    TMP DP  RH WIND       PRES   REMARKS
CARBONDALE     CLOUDY    59  59 100 SW5       29.92R
CAIRO*         CLOUDY    65  62  89 CALM      29.94S
EFFINGHAM*     CLEAR     61  58  90 SW5       29.89S
MARION         CLOUDY    63  63 100 CALM      29.94R
MT. VERNON       N/A     57  57 100 CALM      29.90S FOG
CENTRALIA*     PTCLDY    63  58  86 SW8       29.89F
SALEM*         CLOUDY    62  57  83 SW5       29.89F
METROPOLIS*    CLOUDY    64  64  99 SW3       29.94S
$$

ILZ067-068-072-073-078-083-087-091-290900-
SOUTHEAST ILLINOIS

CITY           SKY/WX    TMP DP  RH WIND       PRES   REMARKS
LAWRENCEVILLE  PTCLDY    64  57  78 W6        29.87S
FLORA*         PTCLDY    65  57  75 W8        29.89S
FAIRFIELD*     CLOUDY    59  59 100 CALM      29.89R
HARRISBURG*    CLOUDY    61  60  99 CALM      29.92R
ROBINSON*      PTCLDY    61  56  82 SW5       29.88S
CARMI*         CLOUDY    62  61  98 CALM      29.90R
$$

ABBREVIATIONS USED IN REMARKS
   TC - TEMPERATURE IN CELSIUS
  WCI - WIND CHILL INDEX
   HX - HEAT INDEX
  VSB - VISIBILITY
$$





USA.gov is the U.S. government's official web portal to all federal, state and local government web resources and services.